Kelso-Longview, WA

1:35 AM PST on December 14, 2017 (GMT -0800)
Kelso-Longview

Weather History for KKLS - September, 2012

Change the Weather History Date:

Tuesday, September 25, 2012

  Actual Average Record
Temperature  
Mean Temperature 60 °F -  
Max Temperature 69 °F 68 °F 84 °F (2006)
Min Temperature 51 °F 46 °F 37 °F (1996)
Degree Days  
Heating Degree Days 5    
Growing Degree Days 10 (Base 50)    
Moisture  
Dew Point 48 °F    
Average Humidity 68    
Maximum Humidity 82    
Minimum Humidity 46    
Precipitation  
Precipitation 0.00 in - - ()
Sea Level Pressure  
Sea Level Pressure 30.12 in    
Wind  
Wind Speed 4 mph (NNW)    
Max Wind Speed 10 mph    
Max Gust Speed -    
Visibility 10 miles    
Events      
Averages and records for this station are not official NWS values.
T = Trace of Precipitation, MM = Missing Value Source: NWS Daily Summary

Daily Weather History Graph

Daily Weather History Graph

Search for Another Location

Airport or City:

Trip Planner

Search our weather history database for the weather conditions in past years. The results will help you decide how hot, cold, wet, or windy it might be!

Date:

Astronomy

Sep. 25, 2012 Rise Set
Actual Time 7:03 AM PDT 7:02 PM PDT
Civil Twilight 6:33 AM PDT 7:31 PM PDT
Nautical Twilight 5:58 AM PDT 8:06 PM PDT
Astronomical Twilight 5:22 AM PDT 8:42 PM PDT
Moon 4:41 PM PDT (9/25) 2:17 AM PDT (9/25)
Length of Visible Light 12h 58m
Length of Day
11h 59m
Waxing Gibbous, 81% of the Moon is Illuminated
Sep 25
Waxing Gibbous
Sep 29
Full
Oct 8
Last Quarter
Oct 15
New
Oct 21
First Quarter

Hourly Weather History & Observations

Time (PDT) Temp. Dew Point Humidity Pressure Visibility Wind Dir Wind Speed Gust Speed Precip Events Conditions
12:15 AM 60.8 °F 53.6 °F 77% 30.12 in 10.0 mi NNW 3.5 mph - N/A   Overcast
12:35 AM 60.8 °F 53.6 °F 77% 30.12 in 10.0 mi Calm Calm - N/A   Overcast
12:55 AM 59.0 °F 51.8 °F 77% 30.12 in 10.0 mi WNW 4.6 mph - N/A   Overcast
1:15 AM 59.0 °F 51.8 °F 77% 30.12 in 10.0 mi NW 4.6 mph - N/A   Overcast
1:35 AM 57.2 °F 51.8 °F 82% 30.12 in 10.0 mi NW 4.6 mph - N/A   Overcast
1:55 AM 57.2 °F 51.8 °F 82% 30.12 in 10.0 mi NW 3.5 mph - N/A   Overcast
2:15 AM 57.2 °F 50.0 °F 77% 30.12 in 10.0 mi NW 3.5 mph - N/A   Overcast
2:35 AM 57.2 °F 50.0 °F 77% 30.12 in 10.0 mi WNW 3.5 mph - N/A   Overcast
2:55 AM 57.2 °F 50.0 °F 77% 30.12 in 10.0 mi NW 3.5 mph - N/A   Overcast
3:15 AM 57.2 °F 48.2 °F 72% 30.12 in 10.0 mi NW 4.6 mph - N/A   Overcast
3:35 AM 55.4 °F 48.2 °F 77% 30.12 in 10.0 mi NW 3.5 mph - N/A   Overcast
3:55 AM 55.4 °F 48.2 °F 77% 30.12 in 10.0 mi Calm Calm - N/A   Overcast
4:15 AM 55.4 °F 48.2 °F 77% 30.12 in 10.0 mi NW 3.5 mph - N/A   Overcast
4:35 AM 55.4 °F 48.2 °F 77% 30.13 in 10.0 mi NNW 4.6 mph - N/A   Overcast
4:55 AM 55.4 °F 48.2 °F 77% 30.13 in 10.0 mi NNW 3.5 mph - N/A   Overcast
5:15 AM 53.6 °F 46.4 °F 77% 30.13 in 10.0 mi NNW 3.5 mph - N/A   Overcast
5:35 AM 53.6 °F 46.4 °F 77% 30.14 in 10.0 mi NNW 3.5 mph - N/A   Overcast
5:55 AM 53.6 °F 46.4 °F 77% 30.14 in 10.0 mi Calm Calm - N/A   Overcast
6:15 AM 53.6 °F 46.4 °F 77% 30.14 in 10.0 mi Calm Calm - N/A   Overcast
6:35 AM 53.6 °F 46.4 °F 77% 30.14 in 10.0 mi Calm Calm - N/A   Overcast
6:55 AM 53.6 °F 46.4 °F 77% 30.15 in 10.0 mi North 4.6 mph - N/A   Overcast
7:15 AM 51.8 °F 44.6 °F 76% 30.15 in 10.0 mi North 3.5 mph - N/A   Scattered Clouds
7:35 AM 51.8 °F 44.6 °F 76% 30.15 in 10.0 mi Calm Calm - N/A   Clear
7:55 AM 51.8 °F 44.6 °F 76% 30.15 in 10.0 mi Calm Calm - N/A   Partly Cloudy
8:15 AM 51.8 °F 44.6 °F 76% 30.15 in 10.0 mi Calm Calm - N/A   Clear
8:35 AM 53.6 °F 44.6 °F 72% 30.15 in 10.0 mi West 3.5 mph - N/A   Clear
8:55 AM 53.6 °F 44.6 °F 72% 30.16 in 10.0 mi NNW 3.5 mph - N/A   Clear
9:15 AM 55.4 °F 46.4 °F 72% 30.15 in 10.0 mi NNW 3.5 mph - N/A   Clear
9:35 AM 55.4 °F 46.4 °F 72% 30.15 in 10.0 mi WNW 4.6 mph - N/A   Scattered Clouds
9:55 AM 55.4 °F 46.4 °F 72% 30.16 in 10.0 mi NW 4.6 mph - N/A   Mostly Cloudy
10:15 AM 57.2 °F 44.6 °F 63% 30.15 in 10.0 mi NNW 5.8 mph - N/A   Overcast
10:35 AM 57.2 °F 46.4 °F 67% 30.16 in 10.0 mi WNW 4.6 mph - N/A   Mostly Cloudy
10:55 AM 59.0 °F 46.4 °F 63% 30.15 in 10.0 mi NNW 6.9 mph - N/A   Scattered Clouds
11:15 AM 60.8 °F 46.4 °F 59% 30.15 in 10.0 mi North 3.5 mph - N/A   Scattered Clouds
12:15 PM 62.6 °F 46.4 °F 55% 30.14 in 10.0 mi North 8.1 mph - N/A   Mostly Cloudy
12:35 PM 62.6 °F 48.2 °F 59% 30.14 in 10.0 mi North 8.1 mph - N/A   Mostly Cloudy
12:55 PM 62.6 °F 48.2 °F 59% 30.13 in 10.0 mi NNW 4.6 mph - N/A   Mostly Cloudy
1:15 PM 62.6 °F 48.2 °F 59% 30.13 in 10.0 mi North 6.9 mph - N/A   Mostly Cloudy
1:35 PM 64.4 °F 48.2 °F 56% 30.12 in 10.0 mi NE 3.5 mph - N/A   Partly Cloudy
1:55 PM 64.4 °F 48.2 °F 56% 30.12 in 10.0 mi North 8.1 mph - N/A   Clear
2:15 PM 64.4 °F 48.2 °F 56% 30.11 in 10.0 mi North 8.1 mph - N/A   Clear
2:35 PM 66.2 °F 48.2 °F 52% 30.11 in 10.0 mi North 6.9 mph - N/A   Clear
2:55 PM 66.2 °F 50.0 °F 56% 30.10 in 10.0 mi North 6.9 mph - N/A   Clear
3:15 PM 66.2 °F 50.0 °F 56% 30.10 in 10.0 mi NNW 6.9 mph - N/A   Clear
3:35 PM 66.2 °F 48.2 °F 52% 30.09 in 10.0 mi NW 5.8 mph - N/A   Clear
3:55 PM 68.0 °F 48.2 °F 49% 30.09 in 10.0 mi NNW 5.8 mph - N/A   Clear
4:15 PM 69.8 °F 50.0 °F 49% 30.09 in 10.0 mi North 9.2 mph - N/A   Clear
4:35 PM 69.8 °F 48.2 °F 46% 30.10 in 10.0 mi North 5.8 mph - N/A   Clear
4:55 PM 69.8 °F 50.0 °F 49% 30.09 in 10.0 mi North 8.1 mph - N/A   Clear
5:15 PM 68.0 °F 50.0 °F 52% 30.09 in 10.0 mi NNW 8.1 mph - N/A   Mostly Cloudy
5:55 PM 66.2 °F 48.2 °F 52% 30.09 in 10.0 mi WNW 5.8 mph - N/A   Overcast
6:15 PM 64.4 °F 48.2 °F 56% 30.09 in 10.0 mi West 8.1 mph - N/A   Overcast
6:35 PM 64.4 °F 48.2 °F 56% 30.10 in 10.0 mi WNW 10.4 mph - N/A   Overcast
6:55 PM 62.6 °F 48.2 °F 59% 30.10 in 10.0 mi WNW 8.1 mph - N/A   Overcast
7:35 PM 62.6 °F 48.2 °F 59% 30.11 in 10.0 mi WNW 5.8 mph - N/A   Overcast
7:55 PM 60.8 °F 48.2 °F 63% 30.11 in 10.0 mi WNW 6.9 mph - N/A   Overcast
8:15 PM 60.8 °F 48.2 °F 63% 30.10 in 10.0 mi WNW 6.9 mph - N/A   Overcast
8:55 PM 59.0 °F 48.2 °F 67% 30.10 in 10.0 mi WNW 4.6 mph - N/A   Overcast
9:35 PM 57.2 °F 48.2 °F 72% 30.11 in 10.0 mi Calm Calm - N/A   Clear
10:15 PM 53.6 °F 48.2 °F 82% 30.12 in 10.0 mi NNW 3.5 mph - N/A   Clear
10:35 PM 53.6 °F 46.4 °F 77% 30.12 in 10.0 mi Calm Calm - N/A   Clear
10:55 PM 53.6 °F 46.4 °F 77% 30.12 in 10.0 mi Calm Calm - N/A   Clear
11:15 PM 53.6 °F 46.4 °F 77% 30.12 in 9.0 mi NW 3.5 mph - N/A   Clear
11:35 PM 53.6 °F 46.4 °F 77% 30.12 in 10.0 mi North 3.5 mph - N/A   Clear
11:55 PM 53.6 °F 46.4 °F 77% 30.12 in 10.0 mi NNW 3.5 mph - N/A   Clear